Regional Weather Roundup
Issued by NWS State College, PA

Home | Current Version | Previous Version | Text Only | Print | Product List | Glossary On
Versions: 1 2 3 4 5 6 7 8 9 10 11 12 13 14 15 16 17 18 19 20 21 22 23 24 25 26 27 28 29 30 31 32 33 34 35 36 37 38 39 40 41 42 43 44 45 46 47 48 49 50
000
ASUS41 KCTP 041810
RWRCTP

REGIONAL WEATHER ROUNDUP
NATIONAL WEATHER SERVICE STATE COLLEGE PA
200 PM EDT TUE AUG 04 2015

Note: "fair" indicates few or no clouds below 12,000 feet with no
significant weather and/or obstructions to visibility.

* = STATION THAT DOES NOT REPORT PRECIPITATION /E.G. RAIN...SNOW...ETC/
    THUNDER OR FOG.

PAZ002>004-007>009-013>016-020>023-029>032-041900-
WESTERN PENNSYLVANIA

CITY           SKY/WX    TMP DP  RH WIND       PRES   REMARKS
ERIE           MOSUNNY   78  58  49 W14G23    29.93F
MEADVILLE      SUNNY     79  52  38 W7G18     29.96F
FRANKLIN*      PTSUNNY   79  54  41 W13G20    29.98F
NEW CASTLE     MOCLDY    82  53  36 W10       29.97F
BEAVER COUNTY  MOSUNNY   75  55  50 CALM      29.98F
BUTLER*        MOSUNNY   79  55  44 W10       30.00S
PITTSBURGH INT MOSUNNY   79  52  38 W6        29.98F
PITTSBURGH     SUNNY     78  50  37 W8        29.97F
INDIANA*       SUNNY     77  55  47 W10       30.01F
LATROBE        MOSUNNY   79  55  44 W12G17    29.99F
WASHINGTON CO* NOT AVBL
$$

PAZ004>006-010>012-017>019-024>028-033>037-041-042-045-046-049>053-041900-
CENTRAL PENNSYLVANIA

CITY           SKY/WX    TMP DP  RH WIND       PRES   REMARKS
BRADFORD       PTSUNNY   72  55  55 W10       29.97S
DUBOIS         MOSUNNY   78  53  41 W15       29.97F
CLEARFIELD     PTSUNNY   78  52  40 W8        29.97S
JOHNSTOWN      SUNNY     75  50  41 W12G17    30.02S
ALTOONA        SUNNY     80  52  37 W13       29.98F
STATE COLLEGE  MOSUNNY   77  57  50 W12G18    29.96F
WILLIAMSPORT   MOSUNNY   85  55  35 SW20G25   29.88F
SELINSGROVE    MOSUNNY   82  59  45 VRB6      29.91F
FT INDIANTOWN  MOSUNNY   83  59  43 VRB7      29.91S
CAPITAL CITY   MOSUNNY   88  52  29 W18G28    29.90F
HARRISBURG     MOSUNNY   87  54  32 W18G24    29.90S
YORK           SUNNY     84  63  49 W6G18     29.92F
$$

PAZ038>040-043-044-047-048-054-055-060>062-067>071-041900-
EASTERN PENNSYLVANIA

CITY           SKY/WX    TMP DP  RH WIND       PRES   REMARKS
SCRANTON       SUNNY     83  57  41 W17G25    29.90R
MOUNT POCONO     N/A     78  56  46 W16G24    29.94R
ALLENTOWN      MOSUNNY   84  62  47 W14       29.89R
QUAKERTOWN*    PTCLDY    84  63  48 SW10G17   29.91S
READING        MOSUNNY   87  59  38 W14G23    29.89R
LANCASTER      MOSUNNY   86  60  41 W18       29.91R
COATESVILLE    PTCLDY    84  63  48 W14G21    29.93S
POTTSTOWN      SUNNY     85  59  41 W12G24    29.91S
BLUE BELL      MOSUNNY   86  66  51 W8        29.89R
DOYLESTOWN     SUNNY     85  57  38 SW12G21   29.89R
WILLOW GROVE   NOT AVBL
NORTH PHILA    MOSUNNY   91  58  32 NW16G25   29.89R
PHILADELPHIA   MOSUNNY   90  61  37 W18G24    29.89S
$$



USA.gov is the U.S. government's official web portal to all federal, state and local government web resources and services.